• In Hungary
  • List of Countries
  • For 7 days
  • Water Temperature
  • Satellite Maps
  • Weather Map
  • News
  • Weather Widgets
  • user-avatar
    Login

    Hourly Weather Magurka

    Today, 24 September, Monday

    Time Temperature Precipitation Wind Pressure Humidity
    00:00 +11°C° 0.4 mm 8 mps 686 mmHg 79%
    01:00 +11°C° 0 mm 6 mps 686 mmHg 85%
    02:00 +9°C° 0.9 mm 7 mps 687 mmHg 84%
    03:00 +6°C° 0.9 mm 8 mps 688 mmHg 84%
    04:00 +4°C° 0.9 mm 8 mps 689 mmHg 84%
    05:00 +2°C° 0.3 mm 8 mps 690 mmHg 84%
    06:00 +3°C° 0.3 mm 7 mps 691 mmHg 84%
    07:00 +3°C° 0.3 mm 6 mps 693 mmHg 84%
    08:00 +3°C° 0.2 mm 6 mps 693 mmHg 82%
    09:00 +3°C° 0.2 mm 6 mps 694 mmHg 80%
    10:00 +3°C° 0.2 mm 7 mps 695 mmHg 77%
    11:00 +4°C° 0.2 mm 7 mps 696 mmHg 74%
    12:00 +4°C° 0.2 mm 7 mps 696 mmHg 70%
    13:00 +5°C° 0.2 mm 7 mps 697 mmHg 66%
    14:00 +5°C° 0.2 mm 7 mps 697 mmHg 65%
    15:00 +5°C° 0.2 mm 7 mps 697 mmHg 64%
    16:00 +5°C° 0.2 mm 7 mps 697 mmHg 64%
    17:00 +4°C° 0.1 mm 6 mps 697 mmHg 68%
    18:00 +3°C° 0.1 mm 5 mps 697 mmHg 72%
    19:00 +3°C° 0.1 mm 4 mps 698 mmHg 76%
    20:00 +3°C° 0 mm 4 mps 698 mmHg 76%
    21:00 +1°C° 0 mm 4 mps 699 mmHg 77%
    22:00 +1°C° 0 mm 4 mps 699 mmHg 78%
    23:00 +2°C° 0 mm 3 mps 699 mmHg 79%

    Tomorrow, 25 September, Tuesday

    Time Temperature Precipitation Wind Pressure Humidity
    00:00 +1°C° 0 mm 3 mps 700 mmHg 80%
    01:00 +1°C° 0 mm 3 mps 700 mmHg 81%
    02:00 +1°C° 0 mm 3 mps 700 mmHg 83%
    03:00 +1°C° 0 mm 3 mps 701 mmHg 84%
    04:00 +1°C° 0 mm 3 mps 701 mmHg 85%
    05:00 +1°C° 0 mm 3 mps 702 mmHg 84%
    06:00 +1°C° 0 mm 3 mps 702 mmHg 83%
    07:00 +1°C° 0 mm 3 mps 703 mmHg 82%
    08:00 +2°C° 0 mm 3 mps 703 mmHg 77%
    09:00 +3°C° 0 mm 4 mps 704 mmHg 72%
    10:00 +5°C° 0 mm 4 mps 705 mmHg 68%
    11:00 +5°C° 0.1 mm 4 mps 705 mmHg 64%
    12:00 +6°C° 0.1 mm 4 mps 705 mmHg 60%
    13:00 +7°C° 0.1 mm 4 mps 705 mmHg 57%
    14:00 +7°C° 0.1 mm 4 mps 705 mmHg 56%
    15:00 +7°C° 0.1 mm 4 mps 705 mmHg 55%
    16:00 +7°C° 0.1 mm 4 mps 705 mmHg 55%
    17:00 +5°C° 0 mm 3 mps 706 mmHg 58%
    18:00 +5°C° 0 mm 2 mps 706 mmHg 62%
    19:00 +3°C° 0 mm 2 mps 706 mmHg 66%
    20:00 +4°C° 0 mm 1 mps 706 mmHg 68%
    21:00 +3°C° 0 mm 1 mps 707 mmHg 69%
    22:00 +3°C° 0 mm 1 mps 707 mmHg 71%
    23:00 +2°C° 0 mm 1 mps 707 mmHg 73%

    Day after tomorrow, 26 September, Wednesday

    Time Temperature Precipitation Wind Pressure Humidity
    00:00 +2°C° 0 mm 1 mps 707 mmHg 74%
    01:00 +2°C° 0 mm 1 mps 707 mmHg 76%
    02:00 +1°C° 0 mm 1 mps 707 mmHg 77%
    03:00 +1°C° 0 mm 1 mps 707 mmHg 77%
    04:00 +1°C° 0 mm 1 mps 707 mmHg 78%
    05:00 +2°C° 0 mm 1 mps 707 mmHg 76%
    06:00 +3°C° 0 mm 1 mps 707 mmHg 73%
    07:00 +3°C° 0 mm 1 mps 708 mmHg 70%
    08:00 +4°C° 0 mm 2 mps 708 mmHg 62%
    09:00 +7°C° 0 mm 2 mps 708 mmHg 53%
    10:00 +9°C° 0 mm 2 mps 708 mmHg 44%
    11:00 +10°C° 0 mm 2 mps 708 mmHg 42%
    12:00 +11°C° 0 mm 3 mps 708 mmHg 40%
    13:00 +11°C° 0 mm 3 mps 707 mmHg 37%
    14:00 +11°C° 0 mm 3 mps 707 mmHg 40%
    15:00 +11°C° 0 mm 3 mps 706 mmHg 43%
    16:00 +10°C° 0 mm 3 mps 706 mmHg 45%
    17:00 +9°C° 0 mm 3 mps 705 mmHg 49%
    18:00 +8°C° 0 mm 3 mps 705 mmHg 53%
    19:00 +5°C° 0 mm 3 mps 705 mmHg 57%
    20:00 +5°C° 0 mm 3 mps 705 mmHg 57%
    21:00 +5°C° 0 mm 3 mps 705 mmHg 57%
    22:00 +5°C° 0 mm 3 mps 705 mmHg 57%
    23:00 +4°C° 0 mm 3 mps 704 mmHg 57%

    27 September, Thursday

    Time Temperature Precipitation Wind Pressure Humidity
    00:00 +4°C° 0 mm 3 mps 704 mmHg 58%
    01:00 +3°C° 0 mm 3 mps 704 mmHg 58%
    02:00 +3°C° 0 mm 3 mps 703 mmHg 58%
    03:00 +3°C° 0 mm 3 mps 703 mmHg 58%
    04:00 +3°C° 0 mm 3 mps 703 mmHg 58%
    05:00 +4°C° 0 mm 3 mps 703 mmHg 57%
    06:00 +4°C° 0 mm 3 mps 703 mmHg 56%
    07:00 +5°C° 0 mm 3 mps 703 mmHg 55%
    08:00 +8°C° 0 mm 3 mps 703 mmHg 51%
    09:00 +10°C° 0 mm 3 mps 704 mmHg 48%
    10:00 +13°C° 0 mm 3 mps 704 mmHg 44%
    11:00 +14°C° 0 mm 3 mps 704 mmHg 46%
    12:00 +16°C° 0 mm 3 mps 704 mmHg 47%
    13:00 +18°C° 0 mm 3 mps 704 mmHg 48%
    14:00 +17°C° 0 mm 3 mps 703 mmHg 52%
    15:00 +17°C° 0 mm 3 mps 703 mmHg 55%
    16:00 +17°C° 0 mm 2 mps 703 mmHg 59%
    17:00 +15°C° 0 mm 2 mps 702 mmHg 65%
    18:00 +13°C° 0 mm 2 mps 702 mmHg 71%
    19:00 +10°C° 0 mm 2 mps 702 mmHg 77%
    20:00 +10°C° 0 mm 2 mps 701 mmHg 77%
    21:00 +10°C° 0 mm 2 mps 701 mmHg 78%
    22:00 +9°C° 0 mm 2 mps 701 mmHg 79%
    23:00 +9°C° 0 mm 2 mps 701 mmHg 81%

    28 September, Friday

    Time Temperature Precipitation Wind Pressure Humidity
    00:00 +9°C° 0 mm 2 mps 700 mmHg 82%
    01:00 +9°C° 0 mm 2 mps 700 mmHg 83%
    02:00 +8°C° 0 mm 2 mps 700 mmHg 84%
    03:00 +8°C° 0 mm 2 mps 699 mmHg 84%
    04:00 +8°C° 0 mm 2 mps 699 mmHg 85%
    05:00 +9°C° 0 mm 2 mps 698 mmHg 83%
    06:00 +9°C° 0 mm 2 mps 698 mmHg 80%
    07:00 +10°C° 0 mm 2 mps 698 mmHg 78%
    08:00 +12°C° 0 mm 3 mps 698 mmHg 70%
    09:00 +14°C° 0 mm 3 mps 698 mmHg 63%
    10:00 +18°C° 0 mm 4 mps 698 mmHg 55%
    11:00 +18°C° 0 mm 4 mps 698 mmHg 53%
    12:00 +19°C° 0 mm 5 mps 698 mmHg 51%
    13:00 +20°C° 0 mm 5 mps 697 mmHg 48%
    14:00 +19°C° 0 mm 4 mps 697 mmHg 50%
    15:00 +19°C° 0 mm 4 mps 696 mmHg 52%
    16:00 +18°C° 0 mm 4 mps 696 mmHg 54%
    17:00 +16°C° 0 mm 3 mps 695 mmHg 60%
    18:00 +13°C° 0 mm 3 mps 695 mmHg 66%
    19:00 +12°C° 0 mm 2 mps 695 mmHg 72%
    20:00 +10°C° 0 mm 2 mps 695 mmHg 74%
    21:00 +9°C° 0 mm 2 mps 695 mmHg 76%
    22:00 +9°C° 0 mm 2 mps 695 mmHg 77%
    23:00 +8°C° 0 mm 2 mps 695 mmHg 80%

    29 September, Saturday

    Time Temperature Precipitation Wind Pressure Humidity
    00:00 +8°C° 0 mm 2 mps 695 mmHg 82%
    01:00 +8°C° 0 mm 2 mps 695 mmHg 84%
    02:00 +8°C° 0.1 mm 3 mps 695 mmHg 83%
    03:00 +7°C° 0.1 mm 3 mps 696 mmHg 81%
    04:00 +7°C° 0.1 mm 3 mps 696 mmHg 80%
    05:00 +7°C° 0.1 mm 3 mps 696 mmHg 80%
    06:00 +5°C° 0.1 mm 3 mps 697 mmHg 81%
    07:00 +4°C° 0.1 mm 3 mps 697 mmHg 81%
    08:00 +5°C° 0.1 mm 4 mps 697 mmHg 77%
    09:00 +6°C° 0.1 mm 4 mps 698 mmHg 73%
    10:00 +7°C° 0.1 mm 4 mps 699 mmHg 69%
    11:00 +8°C° 0.3 mm 4 mps 699 mmHg 66%
    12:00 +8°C° 0.3 mm 5 mps 699 mmHg 64%
    13:00 +9°C° 0.3 mm 5 mps 699 mmHg 61%
    14:00 +8°C° 0.2 mm 5 mps 699 mmHg 61%
    15:00 +8°C° 0.2 mm 5 mps 700 mmHg 61%
    16:00 +8°C° 0.2 mm 4 mps 700 mmHg 62%
    17:00 +7°C° 0 mm 4 mps 700 mmHg 64%
    18:00 +5°C° 0 mm 3 mps 700 mmHg 66%
    19:00 +4°C° 0 mm 3 mps 701 mmHg 68%
    20:00 +4°C° 0 mm 2 mps 701 mmHg 69%
    21:00 +3°C° 0 mm 2 mps 701 mmHg 69%
    22:00 +3°C° 0 mm 2 mps 701 mmHg 70%
    23:00 +2°C° 0 mm 2 mps 701 mmHg 70%
    Show more